Location: Dorfmerkingen
(48.7946°N, 10.3100°E)
Time: 05:47:01
(UTC+00:00)

Daily predictions for brighter satellites

Satellite Brightness Start Highest point End
(mag) Time Altitude Azimuth Time Altitude Azimuth Time Altitude Azimuth
Cosmos 1825 3.0 00:04:51 28° WSW 00:05:51 35° WNW 00:09:02 10° N
SL-4 R/B 3.4 00:04:07 10° W 00:06:38 23° WSW 00:06:38 23° WSW
Cosmos 2154 Rocket 4.1 00:07:15 26° SSW 00:10:56 72° WNW 00:17:15 10° N
SL-12 R/B(2) 4.4 00:07:46 21° SSW 00:13:43 82° SE 00:23:37 10° NE
Cosmos 2297 Rocket 3.3 00:09:02 13° WSW 00:13:44 39° NW 00:19:02 10° NNE
Okean 1 Rocket 3.9 00:10:27 10° NNW 00:14:29 37° W 00:16:03 28° SW
Cosmos 2327 Rocket 4.4 00:11:00 26° S 00:14:38 80° E 00:20:46 10° N
NOSS 3-2 (A) 3.4 00:12:23 29° SSW 00:15:02 59° ESE 00:21:04 10° NE
Meteor 1-21 Rocket 4.2 00:12:01 27° S 00:15:17 88° E 00:21:00 10° NNE
Cosmos 923 Rocket 4.3 00:10:30 10° NNW 00:15:46 66° ENE 00:20:13 14° SE
Cosmos 2219 3.2 00:14:01 28° SSW 00:17:09 80° ESE 00:22:48 10° NNE
ADEOS II 4.4 00:15:27 10° NE 00:18:09 14° E 00:20:52 10° ESE
Aureole 1 Rocket 2.8 00:17:04 38° S 00:18:23 70° ESE 00:22:50 10° NNE
NOSS 3-2 (C) 4.3 00:19:18 21° SSE 00:21:51 32° ESE 00:27:05 10° NE
Cosmos 1937 Rocket 4.1 00:19:39 23° SSE 00:22:30 45° ESE 00:27:30 10° NNE
Cosmos 2228 4.4 00:19:41 10° N 00:23:40 35° ENE 00:27:21 11° SE
Cosmos 1544 Rocket 4.3 00:20:44 10° N 00:25:04 48° ENE 00:28:21 16° SE
Cosmos 1898 Rocket 3.6 00:24:22 27° S 00:27:09 66° ESE 00:32:17 10° NNE
SL-8 Rocket 4.3 00:23:20 21° SSE 00:27:30 62° E 00:33:37 10° NNE
Cosmos 1606 3.0 00:27:54 10° N 00:31:27 57° ENE 00:33:25 24° SSE
H-2A R/B 3.6 00:29:53 10° N 00:33:25 26° WNW 00:35:54 15° WSW
Resurs 1-4 Rocket 3.6 00:29:15 10° NE 00:33:48 29° E 00:37:56 12° SSE
Cosmos 1975 Rocket 3.0 00:37:42 29° SSW 00:39:53 76° W 00:44:19 10° N
Meteor 2-1 Rocket 4.3 00:36:01 10° NNW 00:41:57 81° W 00:46:08 20° S
Cosmos 292 Rocket 3.8 00:40:12 26° SW 00:42:54 73° WNW 00:47:43 10° NNE
Cosmos 2263 Rocket 2.1 00:42:06 24° SSW 00:45:36 88° WNW 00:51:13 10° NNE
BlueWalker 3 3.2 00:45:31 10° WNW 00:49:05 40° N 00:52:40 10° ENE
Orbus 7S? 2.8 00:47:11 10° NW 00:49:53 83° NE 00:53:49 10° ESE
BREEZE-M DEB (TANK) 4.3 00:46:42 10° W 00:50:12 84° N 01:01:32 10° E
Cosmos 1455 Rocket 3.9 00:46:51 10° NNW 00:50:57 37° W 00:52:57 24° SW
Cosmos 1680 Rocket 3.4 00:52:30 10° NNW 00:57:43 78° WSW 01:02:17 13° SSE
Cosmos 2112 Rocket 3.9 00:55:06 10° NNW 01:00:20 86° WSW 01:05:24 11° SSE
Cosmos 2341 Rocket 4.0 00:56:40 21° SSW 01:01:00 74° W 01:07:15 10° N
Helios 1A Rocket 3.5 01:02:09 25° SW 01:03:39 36° W 01:07:12 10° NNW
Cosmos 1818 3.6 00:58:25 10° NW 01:03:49 59° WSW 01:09:09 10° SSE
USA 234 4.3 00:58:31 10° E 01:04:43 48° NNE 01:10:56 10° WNW
Cosmos 1844 Rocket 4.0 01:00:50 12° SSE 01:05:13 31° ESE 01:10:04 10° NE
Cosmos 1461 2.6 01:06:44 24° SW 01:09:01 88° SE 01:12:55 10° NE
Cosmos 1536 Rocket 3.9 01:06:18 18° S 01:09:32 62° E 01:13:55 10° NNE
COBE Rocket 4.1 01:12:19 10° N 01:17:28 71° WNW 01:21:15 18° SSW
CENTAUR R/B 3.3 01:11:56 10° WSW 01:17:45 50° NW 01:24:58 10° NE
IDEFIX/ARIANE 42P 2.6 01:16:16 10° NNE 01:21:33 90° E 01:25:41 17° SSW
Meteor 1-28 Rocket 4.4 01:20:19 10° SE 01:23:36 38° ENE 01:26:55 10° N
SL-16 R/B 3.5 01:19:38 10° NW 01:23:55 22° W 01:26:33 16° SW
USA 238 DEB 4.0 01:23:02 16° SSW 01:27:53 53° ESE 01:34:23 10° NE
USA 238 4.0 01:23:04 16° SSW 01:27:56 52° ESE 01:34:26 10° NE
Cosmos 1869 4.2 01:24:48 10° NNW 01:28:03 29° W 01:29:52 19° SW
Cosmos 1603 3.7 01:23:33 10° NNW 01:29:21 87° WSW 01:35:05 10° SSE
CZ-2C R/B 3.3 01:24:51 10° NNE 01:30:18 68° ESE 01:34:59 12° S
MSX 3.8 01:25:17 10° NNE 01:31:03 90° WNW 01:35:59 14° SSW
Cosmos 1821 Rocket 4.0 01:26:28 14° S 01:31:47 89° W 01:38:00 10° N
Cosmos 1607 4.2 01:25:35 10° NW 01:32:04 76° NE 01:38:22 10° SE
ASTEX 1 4.0 01:28:04 10° SSE 01:32:48 55° ENE 01:37:33 10° N
Cosmos 1048 Rocket 4.4 01:28:30 10° NNW 01:33:42 65° ENE 01:38:56 10° SSE
Cosmos 2082 4.5 01:31:20 13° WSW 01:36:07 43° NW 01:41:29 10° NNE
Cosmos 2218 Rocket 4.3 01:31:20 16° SSW 01:36:14 53° WNW 01:42:17 10° N
CZ-2D R/B 2.1 01:31:42 10° NNE 01:37:06 87° ESE 01:41:46 13° SSW
CZ-2C R/B 2.7 01:32:04 10° S 01:37:12 64° WSW 01:42:35 10° NNW
CZ-4C R/B 4.4 01:33:01 10° WNW 01:37:19 23° NNW 01:42:27 10° NE
Cosmos 1943 3.4 01:32:52 10° NW 01:38:18 50° WSW 01:43:39 10° S
Cosmos 2227 Rocket 4.1 01:34:01 10° W 01:38:18 21° NW 01:42:36 10° N
Cosmos 1437 Rocket 2.7 01:35:31 16° S 01:38:31 86° ESE 01:42:19 10° NNE
Cosmos 1900 4.4 01:34:55 16° SW 01:39:01 85° NW 01:44:08 10° NE
FENGYUN 3A 3.9 01:37:24 10° NNE 01:42:47 67° ESE 01:48:08 10° S
Cosmos 494 Rocket 4.0 01:42:08 10° NNW 01:47:22 75° WSW 01:52:36 10° SSE
Cosmos 1867 3.7 01:47:41 14° SSW 01:52:25 72° SE 01:57:54 10° NE
Cosmos 2058 Rocket 4.2 01:51:36 10° N 01:55:54 46° ENE 02:00:08 10° SSE
NPP 4.1 01:51:08 10° N 01:56:22 51° WNW 02:01:12 12° SW
UNK 4.4 01:51:57 10° SSE 01:56:27 57° ENE 02:00:58 10° N
Alouette 2 Rocket 4.4 01:53:09 10° S 01:57:28 43° E 02:00:58 10° NNE
ADEOS II 2.1 01:53:13 10° NNE 01:58:30 90° NNE 02:03:45 10° SSW
Cosmos 1892 Rocket 4.1 01:54:29 10° S 01:58:48 59° E 02:03:10 10° NNE
Cosmos 2228 4.3 01:57:15 10° NNW 02:00:48 25° W 02:03:54 12° SW
AQUA 3.9 01:56:13 10° NNE 02:00:59 79° ESE 02:05:42 10° SSW
SL-24 DEB 4.2 01:56:43 10° N 02:01:17 87° W 02:05:52 10° S
Iridium 4 Rocket 4.2 01:57:28 10° N 02:01:45 46° E 02:06:20 10° SSE
Cosmos 2123 Rocket 4.0 01:59:36 10° N 02:05:49 88° ENE 02:12:03 10° S
USA 81 4.4 02:01:29 10° N 02:06:47 71° E 02:12:01 10° SSE
H-2A R/B 4.4 02:04:27 10° N 02:08:03 33° WNW 02:11:32 10° SW
ALOS 2.5 02:04:32 10° NNE 02:09:10 71° ESE 02:13:46 10° S
SL-16 R/B 2.6 02:02:56 10° S 02:09:11 74° WSW 02:15:27 10° NNW
Cosmos 1934 Rocket 4.2 02:02:56 10° S 02:09:15 79° E 02:15:39 10° NNE
USA 267 3.8 02:04:28 10° ENE 02:10:46 48° SE 02:17:02 10° SSW
NOSS 3-2 (C) 3.8 02:06:57 10° WSW 02:12:16 56° NW 02:18:40 10° NE
Resurs 1-4 Rocket 2.7 02:08:45 10° N 02:13:47 46° WNW 02:18:48 10° SW
ATLAS 5 CENTAUR R/B 3.5 02:16:22 10° SE 02:17:49 12° ESE 02:19:18 10° E
Cosmos 1844 3.8 02:14:21 10° SSW 02:20:09 86° WNW 02:26:00 10° NNE
Cosmos 1812 2.5 02:20:24 10° NNW 02:23:58 71° W 02:27:31 10° S
Cosmos 1544 3.6 02:22:56 10° SSE 02:25:22 37° E 02:27:51 10° NNE
BlueWalker 3 2.4 02:23:55 10° WNW 02:27:39 63° NNE 02:31:22 10° ESE
Cosmos 2263 Rocket 4.0 02:26:12 10° W 02:30:21 21° NW 02:34:29 10° N
SAR-Lupe-4 3.5 02:30:44 10° NNE 02:34:19 80° WNW 02:37:52 10° SSW
Cosmos 921 Rocket 4.0 02:31:40 10° NW 02:35:12 26° W 02:38:41 10° SSW
